GW6112 Weather Reports


Display with metric or nautical units.
time (UTC)temp
F
wind
direction
speed
MPH
gust
MPH
rain 1hr
in
rain 24hr
in
rain mn
in
humidity
%
barometer
mb
20260505003818 40 127 6.0 11.0 0.00 0.04 0.04 81 1015.8
20260505003315 40 164 8.0 13.0 0.00 0.04 0.04 82 1015.4
20260505002810 40 179 10.0 14.0 0.00 0.04 0.04 81 1015.5
20260505002308 39 156 11.0 14.0 0.00 0.04 0.04 82 1015.6
20260505001806 39 185 9.0 13.0 0.00 0.04 0.04 84 1015.6
20260505001303 39 169 9.0 14.0 0.02 0.04 0.04 85 1016.0
20260505000800 39 151 13.0 17.0 0.02 0.03 0.03 84 1015.9
20260505000258 39 147 13.0 14.0 0.02 0.03 0.03 82 1016.4
20260504235754 39 154 6.0 10.0 0.02 0.03 0.03 80 1016.4
20260504235250 40 148 7.0 14.0 0.05 0.02 0.02 76 1016.4
20260504234748 41 306 3.0 8.0 0.05 0.02 0.02 73 1016.5
20260504234245 42 160 5.0 7.0 0.00 0.02 0.02 67 1016.4
20260504233741 43 158 8.0 9.0 0.00 0.02 0.02 65 1016.0
20260504233237 43 123 6.0 6.0 0.00 0.02 0.02 65 1016.0
20260504232734 43 46 2.0 4.0 0.00 0.02 0.02 66 1015.9
20260504232231 43 107 0.0 5.0 0.00 0.02 0.02 66 1015.8
20260504231728 43 96 2.0 4.0 0.00 0.02 0.02 65 1015.6
20260504231224 43 37 4.0 5.0 0.00 0.02 0.02 63 1015.6
20260504230720 43 74 3.0 4.0 0.00 0.02 0.02 63 1015.4
20260504230219 43 74 6.0 8.0 0.00 0.02 0.02 62 1015.9
20260504225718 44 84 3.0 4.0 0.00 0.02 0.02 65 1015.5
20260504225213 44 105 3.0 8.0 0.00 0.02 0.02 64 1015.2
20260504224711 44 0 3.0 9.0 0.00 0.02 0.02 64 1015.2
20260504224208 43 69 3.0 10.0 0.00 0.02 0.02 64 1014.8
20260504223704 44 359 3.0 11.0 0.00 0.02 0.02 63 1015.4
20260504223200 45 72 3.0 6.0 0.00 0.02 0.02 61 1015.5
20260504222657 45 56 6.0 6.0 0.00 0.02 0.02 63 1015.2
20260504222154 45 7 6.0 6.0 0.00 0.02 0.02 63 1015.0
20260504221651 44 286 4.0 7.0 0.00 0.02 0.02 63 1015.1
20260504221148 44 10 3.0 7.0 0.00 0.02 0.02 63 1015.0
20260504220644 45 353 6.0 16.0 0.00 0.02 0.02 60 1015.1
20260504220142 46 78 4.0 16.0 0.00 0.02 0.02 57 1015.0
20260504215638 46 277 6.0 6.0 0.00 0.02 0.02 62 1014.8
20260504215136 47 42 2.0 12.0 0.00 0.02 0.02 53 1014.7
20260504214631 47 333 2.0 6.0 0.00 0.02 0.02 51 1014.8
20260504214128 47 347 2.0 5.0 0.05 0.02 0.02 57 1014.8
20260504213625 49 29 4.0 10.0 0.09 0.02 0.02 49 1015.0
20260504213121 51 345 1.0 3.0 0.05 0.01 0.01 55 1015.0
20260504212618 51 118 3.0 7.0 0.00 0.00 0.00 46 1014.6
20260504212115 52 88 3.0 7.0 0.00 0.00 0.00 40 1014.7
20260504211612 53 27 5.0 10.0 0.00 0.00 0.00 36 1014.8
20260504211109 53 24 4.0 10.0 0.00 0.00 0.00 37 1014.7
20260504210606 54 352 3.0 5.0 0.00 0.00 0.00 36 1014.5
20260504205600 54 167 3.0 7.0 0.00 0.00 0.00 39 1014.8
20260504205058 53 338 4.0 7.0 0.00 0.00 0.00 38 1014.8
20260504204555 54 4 3.0 8.0 0.00 0.00 0.00 39 1015.0
20260504204055 53 44 5.0 9.0 0.00 0.00 0.00 41 1015.1
20260504203552 54 32 7.0 7.0 0.00 0.00 0.00 41 1015.5
20260504203050 51 112 4.0 7.0 0.00 0.00 0.00 44 1015.5
20260504202545 51 59 6.0 11.0 0.00 0.00 0.00 45 1015.4
20260504202042 50 81 5.0 13.0 0.00 0.00 0.00 48 1015.6
20260504201539 50 358 5.0 9.0 0.00 0.00 0.00 48 1015.5
20260504201037 50 65 8.0 9.0 0.00 0.00 0.00 49 1015.9
20260504200533 49 43 3.0 5.0 0.00 0.00 0.00 50 1015.8
20260504200030 51 352 6.0 7.0 0.00 0.00 0.00 48 1015.4
20260504195526 50 94 2.0 7.0 0.00 0.00 0.00 50 1015.8
20260504195023 50 12 4.0 9.0 0.00 0.00 0.00 50 1016.0
20260504194519 46 327 4.0 9.0 0.00 0.00 0.00 58 1016.2
20260504194014 45 73 1.0 8.0 0.00 0.00 0.00 61 1016.4
20260504193511 44 342 2.0 15.0 0.00 0.00 0.00 61 1016.5
20260504193010 45 297 3.0 16.0 0.00 0.00 0.00 59 1016.7
20260504192508 46 344 3.0 20.0 0.00 0.00 0.00 52 1016.8
20260504192006 47 336 7.0 8.0 0.00 0.00 0.00 51 1016.4
20260504191504 48 347 6.0 10.0 0.00 0.00 0.00 49 1016.3
20260504190959 48 302 8.0 16.0 0.00 0.00 0.00 47 1016.3
20260504190455 50 272 8.0 10.0 0.00 0.00 0.00 44 1016.3
20260504185952 51 8 1.0 4.0 0.00 0.00 0.00 41 1016.0
20260504185449 51 119 8.0 11.0 0.00 0.00 0.00 39 1016.0
20260504184945 51 4 2.0 4.0 0.00 0.00 0.00 40 1016.0
20260504184441 51 80 3.0 6.0 0.00 0.00 0.00 41 1016.0
20260504183936 51 103 7.0 11.0 0.00 0.00 0.00 38 1015.9
20260504183434 51 136 3.0 4.0 0.00 0.00 0.00 43 1016.0
20260504182932 50 322 3.0 4.0 0.00 0.00 0.00 45 1016.2
20260504182428 49 1 3.0 4.0 0.00 0.00 0.00 48 1016.3
20260504181926 49 309 7.0 10.0 0.00 0.00 0.00 45 1016.2
20260504181423 51 295 3.0 4.0 0.00 0.00 0.00 42 1016.2
20260504180922 51 25 13.0 14.0 0.00 0.00 0.00 39 1016.2
20260504180420 52 25 5.0 11.0 0.00 0.00 0.00 37 1016.3
20260504175918 52 328 3.0 9.0 0.00 0.00 0.00 38 1015.8
20260504175414 52 353 7.0 8.0 0.00 0.00 0.00 40 1016.2
20260504174912 51 317 2.0 13.0 0.00 0.00 0.00 39 1016.3
20260504174410 52 30 4.0 8.0 0.00 0.00 0.00 38 1016.3
20260504173907 53 332 8.0 9.0 0.00 0.00 0.00 37 1016.3
20260504173403 53 114 3.0 4.0 0.00 0.00 0.00 37 1016.3
20260504172901 53 286 9.0 10.0 0.00 0.00 0.00 35 1016.4
20260504172357 54 316 5.0 9.0 0.00 0.00 0.00 35 1016.3
20260504171853 54 92 3.0 7.0 0.00 0.00 0.00 35 1016.3
20260504171350 53 341 4.0 18.0 0.00 0.00 0.00 36 1016.4
20260504170847 53 309 9.0 20.0 0.00 0.00 0.00 36 1016.4
20260504170344 54 298 5.0 17.0 0.00 0.00 0.00 36 1016.5
20260504160302 49 215 2.0 7.0 0.00 0.00 0.00 39 1017.1
20260504150728 47 126 4.0 8.0 0.00 0.00 0.00 41 1017.3
20260504150224 47 195 9.0 11.0 0.00 0.00 0.00 40 1017.1
20260504141153 46 230 8.0 13.0 0.00 0.00 0.00 38 1017.3
20260504140650 46 57 2.0 6.0 0.00 0.00 0.00 39 1017.2
20260504140145 46 207 5.0 6.0 0.00 0.00 0.00 38 1017.2
20260504130614 46 245 5.0 6.0 0.00 0.00 0.00 33 1017.2
20260504130111 46 309 4.0 6.0 0.00 0.00 0.00 33 1017.1
20260504110502 46 199 3.0 6.0 0.00 0.00 0.00 31 1016.9
20260504100424 46 218 4.0 6.0 0.00 0.00 0.00 31 1017.3
20260504081817 47 285 4.0 7.0 0.00 0.00 0.00 29 1017.9
20260504081314 47 269 5.0 6.0 0.00 0.00 0.00 29 1018.1
20260504080810 47 284 4.0 6.0 0.00 0.00 0.00 29 1018.0
20260504080307 47 268 6.0 9.0 0.00 0.00 0.00 30 1018.1
20260504070235 47 283 2.0 6.0 0.00 0.00 0.00 31 1018.6
20260504060155 47 285 2.0 6.0 0.00 0.00 0.00 32 1019.0
20260504050623 47 346 2.0 4.0 0.00 0.00 0.00 34 1019.3
20260504050120 48 328 4.0 7.0 0.00 0.00 0.00 33 1019.4
20260504045617 48 347 2.0 6.0 0.00 0.00 0.00 33 1019.4
20260504045112 48 147 0.0 5.0 0.00 0.00 0.00 34 1019.6
20260504044610 48 258 3.0 7.0 0.00 0.00 0.00 34 1019.6
20260504044106 48 323 4.0 6.0 0.00 0.00 0.00 33 1019.6
20260504043604 48 256 4.0 7.0 0.00 0.00 0.00 33 1019.4
20260504043101 48 333 4.0 6.0 0.00 0.00 0.00 34 1019.6
20260504042558 48 320 3.0 5.0 0.00 0.00 0.00 34 1019.8
20260504042055 48 320 3.0 5.0 0.00 0.00 0.00 34 1019.9
20260504041550 48 291 4.0 6.0 0.00 0.00 0.00 34 1019.7
20260504041047 48 311 4.0 9.0 0.00 0.00 0.00 34 1019.8
20260504040544 48 343 5.0 6.0 0.00 0.00 0.00 34 1019.6
20260504040041 48 334 3.0 6.0 0.00 0.00 0.00 34 1019.8
20260504035538 48 0 3.0 5.0 0.00 0.00 0.00 34 1019.8
20260504035034 48 312 3.0 10.0 0.00 0.00 0.00 34 1019.9
20260504034533 48 6 2.0 4.0 0.00 0.00 0.00 35 1019.9
20260504034029 48 253 5.0 7.0 0.00 0.00 0.00 34 1019.9
20260504033527 48 303 3.0 7.0 0.00 0.00 0.00 35 1019.8
20260504033024 48 335 4.0 6.0 0.00 0.00 0.00 35 1019.8
20260504032521 48 247 11.0 12.0 0.00 0.00 0.00 35 1019.8
20260504032017 48 299 5.0 10.0 0.00 0.00 0.00 36 1019.9
20260504031514 48 283 5.0 10.0 0.00 0.00 0.00 36 1019.8
20260504031010 48 257 8.0 13.0 0.00 0.00 0.00 36 1019.8
20260504030508 48 275 8.0 9.0 0.00 0.00 0.00 35 1019.7
20260504030004 48 237 4.0 10.0 0.00 0.00 0.00 35 1019.8
20260504025501 48 274 3.0 14.0 0.00 0.00 0.00 35 1019.7
20260504024957 48 334 3.0 11.0 0.00 0.00 0.00 35 1019.7
20260504024455 48 273 5.0 6.0 0.00 0.00 0.00 35 1019.6
20260504023952 48 11 2.0 7.0 0.00 0.00 0.00 36 1019.7
20260504023449 48 29 3.0 5.0 0.00 0.00 0.00 36 1019.4
20260504022944 48 323 2.0 3.0 0.00 0.00 0.00 36 1019.4
20260504022440 48 331 4.0 7.0 0.00 0.00 0.00 36 1019.6
20260504021937 48 296 5.0 10.0 0.00 0.00 0.00 36 1019.6
20260504021435 48 232 18.0 19.0 0.00 0.00 0.00 37 1019.6
20260504020932 48 271 4.0 17.0 0.00 0.00 0.00 38 1019.4
20260504020428 48 324 3.0 11.0 0.00 0.00 0.00 39 1019.7
20260504015925 48 355 3.0 18.0 0.00 0.00 0.00 39 1019.7
20260504015421 49 276 16.0 24.0 0.00 0.00 0.00 38 1020.1
20260504014917 49 309 11.0 17.0 0.00 0.00 0.00 37 1019.7
20260504014413 50 307 5.0 14.0 0.00 0.00 0.00 36 1019.6
20260504013910 50 321 6.0 13.0 0.00 0.00 0.00 35 1019.7
20260504013409 50 302 3.0 9.0 0.00 0.00 0.00 35 1019.7
20260504012904 50 273 6.0 9.0 0.00 0.00 0.00 34 1019.7
20260504012402 51 320 3.0 8.0 0.00 0.00 0.00 33 1019.6
20260504011859 51 313 5.0 10.0 0.00 0.00 0.00 32 1019.6
20260504011356 51 294 3.0 6.0 0.00 0.00 0.00 32 1019.4
20260504010852 51 317 6.0 7.0 0.00 0.00 0.00 32 1019.4
20260504010348 52 266 8.0 16.0 0.00 0.00 0.00 31 1019.2
20260504005845 52 330 6.0 7.0 0.00 0.00 0.00 31 1019.6
20260504005341 52 287 4.0 9.0 0.00 0.00 0.00 31 1019.4
20260504004839 52 336 4.0 5.0 0.00 0.00 0.00 31 1019.4
20260504004337 52 280 2.0 4.0 0.00 0.00 0.00 33 1019.2